Tracking 28091 objects as of 30-Sep-2023
HD Live streaming from Space Station
objects crossing your sky now

STARLINK-30293

Track STARLINK-30293 now!
10-day predictions
STARLINK-30293 is classified as:


NORAD ID: 57649
Int'l Code: 2023-122T
Perigee: 493.9 km
Apogee: 495.2 km
Inclination: 43.0 °
Period: 94.4 minutes
Semi major axis: 6865 km
RCS: Unknown
Launch date: August 17, 2023
Source: United States (US)
Launch site: AIR FORCE EASTERN TEST RANGE (AFETR)
Your satellite tracking list
Your tracking list is empty




NASA's NSSDC Master Catalog

Two Line Element Set (TLE):
1 57649U 23122T   23273.14877522  .00028457  00000-0  10864-2 0  9991
2 57649  42.9996 257.0819 0000991 187.3095 172.7742 15.26126513  8073
Source of the keplerian elements: AFSPC